When you browse on this site, cookies collect data to enhance your experience and personalize the content and advertising you see.
Visit our Privacy Policy to learn more. By continuing to use the site, you agree to this use of cookies and data.
  • In Hungary
  • List of Countries
  • For 7 days
  • Water Temperature
  • Satellite Maps
  • Weather Map
  • News
  • Weather Widgets
  • user-avatar
    Login

    Hourly Weather Klyuchevskiy

    Today, 12 December, Wednesday

    Time Temperature Precipitation Wind Pressure Humidity
    00:00 -30°C° 0 mm 0 mps 683 mmHg 94%
    01:00 -30°C° 0 mm 0 mps 683 mmHg 94%
    02:00 -29°C° 0 mm 0 mps 683 mmHg 94%
    03:00 -29°C° 0 mm 0 mps 683 mmHg 94%
    04:00 -29°C° 0 mm 0 mps 683 mmHg 94%
    05:00 -29°C° 0 mm 0 mps 683 mmHg 94%
    06:00 -29°C° 0 mm 0 mps 683 mmHg 94%
    07:00 -30°C° 0 mm 1 mps 684 mmHg 94%
    08:00 -30°C° 0 mm 1 mps 684 mmHg 94%
    09:00 -29°C° 0 mm 1 mps 685 mmHg 91%
    10:00 -27°C° 0 mm 1 mps 685 mmHg 88%
    11:00 -25°C° 0 mm 1 mps 686 mmHg 86%
    12:00 -24°C° 0 mm 1 mps 686 mmHg 85%
    13:00 -23°C° 0 mm 1 mps 686 mmHg 84%
    14:00 -23°C° 0 mm 1 mps 687 mmHg 84%
    15:00 -24°C° 0 mm 1 mps 687 mmHg 86%
    16:00 -25°C° 0 mm 1 mps 687 mmHg 89%
    17:00 -28°C° 0 mm 1 mps 687 mmHg 91%
    18:00 -28°C° 0 mm 1 mps 687 mmHg 91%
    19:00 -28°C° 0 mm 1 mps 687 mmHg 91%
    20:00 -29°C° 0 mm 1 mps 687 mmHg 91%
    21:00 -29°C° 0 mm 1 mps 688 mmHg 91%
    22:00 -29°C° 0 mm 1 mps 688 mmHg 91%
    23:00 -29°C° 0 mm 1 mps 688 mmHg 90%

    Tomorrow, 13 December, Thursday

    Time Temperature Precipitation Wind Pressure Humidity
    00:00 -29°C° 0 mm 1 mps 688 mmHg 91%
    01:00 -29°C° 0 mm 1 mps 689 mmHg 91%
    02:00 -29°C° 0 mm 1 mps 689 mmHg 91%
    03:00 -29°C° 0 mm 1 mps 689 mmHg 91%
    04:00 -29°C° 0 mm 1 mps 689 mmHg 91%
    05:00 -29°C° 0 mm 1 mps 689 mmHg 91%
    06:00 -29°C° 0 mm 1 mps 689 mmHg 91%
    07:00 -30°C° 0 mm 1 mps 689 mmHg 91%
    08:00 -30°C° 0 mm 1 mps 689 mmHg 91%
    09:00 -28°C° 0 mm 1 mps 689 mmHg 89%
    10:00 -25°C° 0 mm 1 mps 690 mmHg 86%
    11:00 -23°C° 0 mm 1 mps 690 mmHg 83%
    12:00 -23°C° 0 mm 1 mps 689 mmHg 84%
    13:00 -22°C° 0 mm 1 mps 689 mmHg 84%
    14:00 -21°C° 0 mm 1 mps 689 mmHg 84%
    15:00 -23°C° 0 mm 1 mps 688 mmHg 87%
    16:00 -24°C° 0 mm 1 mps 688 mmHg 89%
    17:00 -27°C° 0 mm 1 mps 687 mmHg 92%
    18:00 -27°C° 0 mm 1 mps 687 mmHg 92%
    19:00 -27°C° 0 mm 1 mps 687 mmHg 92%
    20:00 -27°C° 0 mm 1 mps 687 mmHg 92%
    21:00 -27°C° 0 mm 1 mps 687 mmHg 92%
    22:00 -27°C° 0 mm 1 mps 687 mmHg 92%
    23:00 -28°C° 0 mm 1 mps 686 mmHg 92%

    Day after tomorrow, 14 December, Friday

    Time Temperature Precipitation Wind Pressure Humidity
    00:00 -28°C° 0 mm 1 mps 686 mmHg 92%
    01:00 -28°C° 0 mm 1 mps 686 mmHg 92%
    02:00 -28°C° 0 mm 1 mps 686 mmHg 92%
    03:00 -28°C° 0 mm 1 mps 685 mmHg 92%
    04:00 -28°C° 0 mm 1 mps 685 mmHg 92%
    05:00 -28°C° 0 mm 1 mps 685 mmHg 92%
    06:00 -28°C° 0 mm 1 mps 685 mmHg 92%
    07:00 -28°C° 0 mm 1 mps 685 mmHg 92%
    08:00 -28°C° 0 mm 1 mps 685 mmHg 92%
    09:00 -25°C° 0 mm 1 mps 685 mmHg 90%
    10:00 -24°C° 0 mm 1 mps 685 mmHg 88%
    11:00 -22°C° 0 mm 1 mps 685 mmHg 86%
    12:00 -21°C° 0 mm 1 mps 684 mmHg 86%
    13:00 -21°C° 0 mm 1 mps 684 mmHg 86%
    14:00 -20°C° 0 mm 1 mps 683 mmHg 86%
    15:00 -21°C° 0 mm 1 mps 683 mmHg 89%
    16:00 -22°C° 0 mm 1 mps 683 mmHg 91%
    17:00 -23°C° 0 mm 1 mps 682 mmHg 93%
    18:00 -24°C° 0 mm 1 mps 682 mmHg 93%
    19:00 -24°C° 0 mm 1 mps 682 mmHg 94%
    20:00 -24°C° 0 mm 1 mps 682 mmHg 94%
    21:00 -24°C° 0 mm 1 mps 682 mmHg 94%
    22:00 -24°C° 0 mm 1 mps 681 mmHg 94%
    23:00 -24°C° 0 mm 1 mps 681 mmHg 94%

    15 December, Saturday

    Time Temperature Precipitation Wind Pressure Humidity
    00:00 -24°C° 0 mm 1 mps 680 mmHg 94%
    01:00 -24°C° 0 mm 1 mps 680 mmHg 95%
    02:00 -24°C° 0 mm 0 mps 680 mmHg 95%
    03:00 -24°C° 0 mm 0 mps 679 mmHg 95%
    04:00 -24°C° 0 mm 0 mps 679 mmHg 95%
    05:00 -24°C° 0 mm 0 mps 678 mmHg 95%
    06:00 -24°C° 0 mm 0 mps 678 mmHg 96%
    07:00 -24°C° 0 mm 0 mps 678 mmHg 96%
    08:00 -24°C° 0 mm 0 mps 678 mmHg 96%
    09:00 -23°C° 0 mm 0 mps 678 mmHg 94%
    10:00 -22°C° 0 mm 0 mps 678 mmHg 92%
    11:00 -20°C° 0 mm 0 mps 678 mmHg 89%
    12:00 -20°C° 0 mm 0 mps 678 mmHg 89%
    13:00 -20°C° 0 mm 1 mps 678 mmHg 89%
    14:00 -19°C° 0 mm 1 mps 677 mmHg 88%
    15:00 -21°C° 0 mm 1 mps 677 mmHg 91%
    16:00 -22°C° 0 mm 1 mps 677 mmHg 93%
    17:00 -24°C° 0 mm 1 mps 677 mmHg 96%
    18:00 -24°C° 0 mm 1 mps 677 mmHg 96%
    19:00 -24°C° 0 mm 1 mps 677 mmHg 96%
    20:00 -24°C° 0 mm 1 mps 677 mmHg 96%
    21:00 -24°C° 0 mm 1 mps 676 mmHg 96%
    22:00 -24°C° 0 mm 0 mps 676 mmHg 96%
    23:00 -24°C° 0 mm 0 mps 676 mmHg 96%

    16 December, Sunday

    Time Temperature Precipitation Wind Pressure Humidity
    00:00 -24°C° 0 mm 0 mps 676 mmHg 96%
    01:00 -24°C° 0 mm 0 mps 676 mmHg 96%
    02:00 -24°C° 0 mm 1 mps 676 mmHg 96%
    03:00 -25°C° 0 mm 1 mps 676 mmHg 95%
    04:00 -25°C° 0 mm 1 mps 676 mmHg 95%
    05:00 -25°C° 0 mm 1 mps 676 mmHg 95%
    06:00 -25°C° 0 mm 1 mps 676 mmHg 95%
    07:00 -25°C° 0 mm 1 mps 676 mmHg 95%
    08:00 -25°C° 0 mm 1 mps 676 mmHg 95%
    09:00 -24°C° 0 mm 1 mps 677 mmHg 92%
    10:00 -22°C° 0 mm 1 mps 677 mmHg 90%
    11:00 -20°C° 0 mm 0 mps 677 mmHg 87%
    12:00 -20°C° 0 mm 1 mps 677 mmHg 88%
    13:00 -19°C° 0 mm 1 mps 677 mmHg 88%
    14:00 -18°C° 0 mm 1 mps 677 mmHg 88%
    15:00 -20°C° 0 mm 1 mps 676 mmHg 90%
    16:00 -22°C° 0 mm 1 mps 676 mmHg 93%
    17:00 -23°C° 0 mm 1 mps 676 mmHg 95%
    18:00 -24°C° 0 mm 1 mps 675 mmHg 95%
    19:00 -24°C° 0 mm 1 mps 675 mmHg 96%
    20:00 -24°C° 0 mm 1 mps 675 mmHg 96%
    21:00 -25°C° 0 mm 1 mps 674 mmHg 96%
    22:00 -25°C° 0 mm 1 mps 674 mmHg 96%
    23:00 -25°C° 0 mm 1 mps 673 mmHg 97%

    17 December, Monday

    Time Temperature Precipitation Wind Pressure Humidity
    00:00 -25°C° 0 mm 1 mps 673 mmHg 97%
    01:00 -27°C° 0 mm 1 mps 672 mmHg 97%
    02:00 -27°C° 0 mm 1 mps 672 mmHg 97%
    03:00 -27°C° 0 mm 1 mps 671 mmHg 96%
    04:00 -25°C° 0 mm 1 mps 671 mmHg 96%
    05:00 -25°C° 0 mm 1 mps 671 mmHg 96%
    06:00 -25°C° 0 mm 1 mps 671 mmHg 96%
    07:00 -24°C° 0 mm 1 mps 671 mmHg 96%
    08:00 -24°C° 0 mm 1 mps 671 mmHg 96%
    09:00 -23°C° 0 mm 1 mps 671 mmHg 94%
    10:00 -21°C° 0 mm 1 mps 671 mmHg 92%
    11:00 -20°C° 0 mm 1 mps 671 mmHg 89%
    12:00 -19°C° 0 mm 1 mps 671 mmHg 89%
    13:00 -18°C° 0 mm 1 mps 671 mmHg 88%
    14:00 -17°C° 0 mm 1 mps 672 mmHg 87%
    15:00 -19°C° 0 mm 1 mps 672 mmHg 89%
    16:00 -20°C° 0 mm 1 mps 672 mmHg 91%
    17:00 -21°C° 0 mm 1 mps 673 mmHg 92%
    18:00 -22°C° 0 mm 1 mps 673 mmHg 92%
    19:00 -22°C° 0 mm 1 mps 674 mmHg 92%
    20:00 -23°C° 0 mm 1 mps 675 mmHg 91%
    21:00 -23°C° 0 mm 1 mps 675 mmHg 91%
    22:00 -24°C° 0 mm 1 mps 675 mmHg 91%
    23:00 -25°C° 0 mm 1 mps 675 mmHg 90%
    Show more